Wind_Speed
9 8 6 5 4 4 4 2 2 2 1 2 3 3 3 2 3 3 3 4 4 4 5 6 6 7 8 9 9 10 11 12 13 14 15 15 15 15 14 14 15 16 15 13 12 10 9 8 8 8 7 7 8 8 7 2 2 4 2 3 4 4 5 5 6 8 8 7 8 8 8 9 9 9 8 6 5 4 2 2 5 6 5 5 5 4 3 2
9 8 6 5 5 5 4 3 3 3 2 3 3 4 3 3 3 3 4 4 4 5 5 6 6 7 8 8 9 11 11 12 13 14 15 15 15 14 14 15 15 16 15 12 10 8 8 9 9 8 8 9 10 10 6 2 3 4 2 1 3 4 7 9 9 10 10 9 8 9 9 9 10 10 9 8 7 4 1 2 4 5 5 4 4 4 3 2
9 8 7 6 6 6 5 4 4 4 3 4 4 4 4 4 4 4 4 5 5 5 6 6 7 7 8 9 9 11 11 12 13 14 15 15 15 14 14 15 15 15 14 11 8 8 8 9 9 8 9 13 15 12 6 4 4 2 2 5 6 7 8 10 11 11 13 12 10 9 10 11 11 11 9 8 7 5 2 2 4 6 5 4 4 4 2 0
9 8 8 7 7 7 6 5 5 5 4 5 5 5 4 5 5 5 5 5 6 6 7 7 7 8 8 9 10 11 12 12 13 14 15 15 14 15 14 15 15 14 12 8 7 8 8 9 8 7 11 15 15 11 6 5 3 1 4 7 7 7 9 11 12 12 13 13 12 11 11 12 12 11 9 8 7 6 4 3 5 6 5 4 4 3 2 1
9 9 9 8 8 8 7 7 6 6 6 6 6 6 5 5 6 6 6 6 7 7 8 8 8 9 9 10 10 12 13 12 14 15 15 15 15 15 14 14 15 13 10 7 7 8 8 9 8 8 11 14 13 9 5 4 2 2 5 8 8 8 11 12 11 11 12 12 12 12 12 13 13 11 9 8 7 6 5 4 5 6 5 5 4 4 2 1
10 10 10 9 9 9 8 8 8 7 7 8 7 7 7 7 7 7 7 7 8 8 9 9 9 9 10 10 10 12 13 12 14 15 15 16 16 15 15 14 14 12 9 6 7 8 9 9 10 10 12 14 13 8 4 3 1 4 7 8 10 9 10 12 12 12 12 12 12 12 12 12 13 12 8 7 8 7 6 5 5 5 5 5 5 4 3 1
11 11 11 11 10 10 9 9 9 9 9 9 9 9 8 8 8 9 9 9 9 10 10 10 10 10 10 11 10 11 14 14 14 15 15 16 17 16 15 14 13 11 8 6 6 8 8 9 11 11 13 14 12 6 4 4 2 5 7 9 11 9 10 12 12 12 11 10 9 9 10 11 13 12 7 6 8 9 7 6 6 5 4 5 4 4 3 2
12 12 12 12 12 11 11 11 11 11 11 11 11 11 10 10 10 10 10 10 11 11 11 11 11 11 11 12 11 11 15 16 15 15 15 16 16 16 16 15 13 10 7 6 5 7 7 9 10 10 13 13 9 4 2 2 3 6 8 9 9 9 11 12 10 10 10 8 6 5 7 9 12 12 9 6 8 9 8 7 8 6 4 5 5 5 4 3
13 13 13 13 13 13 13 13 13 13 13 13 13 13 12 12 12 12 12 12 12 12 12 12 12 12 12 13 12 11 14 16 16 16 16 16 16 17 16 14 12 9 7 6 5 5 6 8 8 9 12 11 6 4 2 4 6 6 6 7 8 10 12 12 10 9 8 7 4 4 4 7 10 12 9 7 8 9 9 8 9 9 6 5 7 6 6 4
13 13 13 14 15 15 15 15 15 15 15 15 15 14 14 14 13 13 13 13 13 13 13 13 13 13 13 14 14 12 14 15 17 17 16 17 16 16 15 13 11 8 7 6 5 4 6 7 8 9 10 8 4 2 3 6 6 5 5 7 8 10 11 12 12 8 6 7 4 3 3 5 8 10 9 8 9 10 10 9 9 9 8 7 7 7 6 4
14 14 15 15 15 16 16 16 17 17 17 16 16 16 16 16 15 14 14 14 14 14 13 14 14 14 14 16 15 14 15 15 17 18 17 16 16 16 15 12 10 8 7 6 5 5 5 6 8 9 7 4 2 2 4 5 6 4 5 7 9 12 13 13 13 9 6 10 8 6 4 3 5 8 9 8 9 10 10 9 9 10 10 8 7 6 6 4
15 16 16 16 16 17 17 18 18 18 18 18 18 17 17 17 16 16 15 15 15 15 14 14 15 14 15 17 16 15 16 16 17 20 19 17 16 15 14 11 9 7 7 6 5 4 5 6 7 8 6 3 2 4 4 5 5 4 5 8 10 12 15 14 13 11 9 12 11 10 8 3 3 5 7 8 9 10 10 10 11 11 11 9 7 6 6 5
16 17 17 17 18 18 18 18 19 19 19 19 19 18 18 18 18 17 16 16 16 15 15 15 15 14 16 18 17 16 17 16 17 20 21 19 16 14 13 11 8 7 7 6 5 4 4 5 7 7 5 1 3 4 4 4 3 3 4 8 11 10 14 15 14 13 13 14 14 13 11 6 4 5 6 7 9 10 10 11 11 10 10 10 8 6 5 5
17 17 18 18 18 19 19 19 19 20 20 20 20 19 19 19 19 18 18 17 17 16 15 15 15 15 17 19 17 17 18 18 17 18 21 20 15 13 12 9 8 7 6 5 4 4 3 4 7 6 3 1 3 4 5 4 3 3 5 8 10 8 12 15 15 13 14 17 17 15 11 7 6 6 7 8 9 10 10 12 12 11 11 12 10 7 5 5
18 18 18 19 19 19 19 19 19 20 20 20 20 20 20 19 19 19 19 18 18 17 16 16 15 15 17 19 18 17 19 20 18 17 19 17 13 12 11 8 7 6 5 4 4 3 3 4 5 6 3 1 3 6 6 5 5 5 8 10 8 8 12 16 16 14 16 20 21 18 12 9 9 8 9 9 9 10 11 12 12 12 13 13 10 7 6 5
19 19 19 19 19 19 19 19 19 19 20 20 20 20 20 20 20 20 19 19 18 18 17 16 16 17 17 18 18 17 19 21 19 17 16 14 10 10 9 8 6 6 5 4 4 3 3 4 4 5 3 2 5 8 7 5 6 6 8 10 6 10 15 19 19 17 19 24 24 19 14 12 12 10 11 12 11 10 11 12 12 12 13 13 10 8 8 7
19 19 19 19 19 19 19 19 20 20 20 20 20 20 20 20 20 20 20 19 19 18 18 16 17 19 18 17 17 17 20 21 19 17 13 9 8 7 7 7 5 5 5 4 4 3 3 4 4 5 3 4 8 10 9 7 6 5 7 9 9 13 17 20 20 20 23 25 22 17 14 13 13 12 12 13 12 10 11 12 12 13 13 14 13 11 10 9
20 20 19 19 19 19 19 19 19 19 20 20 20 20 20 20 20 20 20 19 20 19 18 17 18 19 18 17 16 16 20 21 18 16 10 6 6 5 5 5 5 5 5 5 3 3 3 3 3 4 2 4 8 11 11 9 7 6 8 13 14 16 18 18 17 19 24 23 19 16 13 11 11 11 11 11 11 11 10 13 14 15 15 15 14 13 11 11
22 22 21 21 20 20 19 19 20 19 20 20 20 20 20 20 20 20 19 19 21 20 19 17 17 19 20 18 15 14 18 20 17 14 9 6 6 4 4 4 4 5 5 4 2 3 3 3 3 2 1 3 7 10 11 10 7 7 10 14 17 17 17 15 14 16 19 18 14 15 14 9 10 10 11 12 8 9 10 13 16 16 16 15 15 14 12 13
23 23 23 23 22 22 22 21 21 20 20 20 20 20 19 19 20 20 19 19 21 20 19 17 16 19 21 18 16 14 16 18 15 11 9 6 6 5 4 4 4 4 3 2 2 4 5 5 5 3 3 3 6 9 10 10 8 10 12 14 16 15 15 13 12 12 15 15 11 13 15 10 11 13 12 13 10 5 8 12 15 17 16 17 18 16 14 15
22 23 23 24 24 24 24 24 24 23 22 21 20 20 20 20 20 19 18 18 20 21 19 18 16 18 20 18 17 14 14 16 11 9 9 6 5 5 4 4 3 3 2 1 3 5 6 5 5 5 3 3 5 9 10 10 11 11 9 9 12 13 12 11 9 9 11 13 10 12 15 12 12 15 12 12 13 8 4 9 13 14 16 18 20 18 16 17
22 22 23 23 24 25 25 26 26 25 24 23 22 21 20 20 19 18 18 17 19 21 19 18 17 17 20 18 16 14 13 14 9 9 10 6 4 5 4 4 3 3 2 1 4 5 5 5 7 6 3 5 5 9 10 10 10 9 6 5 7 8 10 11 11 12 14 13 13 13 14 14 15 15 12 11 12 12 6 6 12 14 16 17 18 18 18 19
21 21 21 22 22 23 24 25 25 25 25 24 23 22 20 19 17 17 17 15 16 18 18 18 17 17 20 18 16 13 12 12 8 9 10 6 4 5 4 4 3 3 2 2 5 5 5 6 7 7 4 6 6 4 4 3 8 8 5 4 5 7 10 13 15 19 20 17 17 13 12 17 20 15 11 11 11 12 10 3 11 15 17 19 20 21 22 23
21 20 19 20 21 21 22 23 23 23 23 23 23 23 20 17 17 17 18 15 14 16 16 16 17 16 19 18 15 12 10 9 8 9 10 6 5 7 5 3 4 4 3 3 5 6 6 6 6 8 8 5 4 4 4 8 11 10 7 3 5 6 8 11 13 18 21 20 17 11 13 20 21 15 10 10 10 12 12 5 7 13 16 21 23 23 23 24
20 20 18 19 20 20 21 21 21 20 21 21 22 22 20 18 18 18 18 17 15 16 16 16 17 16 16 15 13 10 8 7 7 8 10 8 7 8 5 4 4 4 4 4 5 7 6 6 7 8 7 2 5 8 12 16 16 13 9 2 6 6 6 8 10 14 19 19 13 11 16 20 18 13 9 9 10 11 11 8 1 8 12 15 18 19 20 22
20 20 18 18 19 19 20 20 20 19 20 20 21 21 20 19 19 18 19 19 17 17 16 16 15 13 11 11 11 8 8 8 8 9 11 9 8 7 5 6 5 5 5 4 6 7 7 8 5 2 3 6 9 12 17 21 19 14 9 2 6 4 2 6 10 14 17 15 10 12 16 18 17 13 10 10 10 9 10 10 5 4 9 11 11 12 15 16
17 17 16 16 17 17 18 18 19 19 19 20 20 21 20 20 20 20 20 19 16 14 13 13 12 9 8 9 9 7 7 8 8 9 10 8 7 7 6 7 6 5 4 4 6 7 7 6 1 5 4 7 11 16 19 18 15 10 6 3 3 4 4 8 9 11 11 9 9 11 13 15 16 13 10 11 11 8 10 10 9 3 6 11 11 10 11 13
13 14 12 12 14 14 14 15 16 17 18 18 18 19 18 18 18 18 17 14 11 10 8 8 8 8 10 9 9 8 8 9 8 8 8 6 6 7 7 7 6 5 4 3 5 5 4 2 5 8 7 8 10 15 18 16 13 7 4 3 1 4 10 12 10 7 7 7 8 11 14 16 15 11 8 10 11 9 9 9 10 8 2 6 9 11 12 12
12 12 10 9 11 11 10 12 12 13 15 15 15 15 14 15 14 13 12 8 6 7 6 4 5 7 9 9 10 9 9 9 6 7 8 6 5 7 7 6 6 5 4 2 2 4 4 3 8 11 10 9 8 9 13 15 13 10 11 11 7 5 7 14 13 8 11 12 12 12 15 15 12 8 7 11 11 9 8 7 7 9 7 5 2 5 8 8
12 13 11 10 10 10 9 9 9 10 11 11 11 11 10 10 9 8 6 4 5 6 7 5 4 4 5 7 8 9 10 8 5 6 8 7 7 8 6 6 6 5 3 3 2 4 6 7 10 13 10 6 5 5 8 11 13 11 11 9 7 8 8 13 10 9 13 14 14 10 10 8 5 4 8 13 11 8 7 6 6 7 8 8 8 5 3 3
11 12 11 10 10 10 9 8 8 8 8 8 7 7 6 5 5 4 4 6 7 6 6 6 2 2 3 5 6 7 9 7 5 5 7 9 9 9 7 7 7 6 5 6 5 8 11 10 10 11 8 6 3 1 5 9 11 9 6 5 4 7 8 8 3 8 13 13 11 8 7 5 2 5 11 13 11 9 9 7 6 7 7 8 7 7 6 4
9 10 10 10 9 10 9 7 7 7 6 6 5 4 3 3 5 7 8 10 9 5 6 5 1 3 3 3 4 7 8 7 5 6 9 10 9 8 8 7 7 6 7 7 4 6 10 9 8 10 10 8 6 4 4 7 6 4 3 1 2 6 5 3 2 3 10 11 9 10 10 8 6 8 11 12 10 9 9 8 7 7 7 7 6 5 5 6
11 10 9 8 8 9 8 7 6 6 5 4 3 1 4 7 10 11 11 11 11 9 8 6 2 2 1 2 4 6 7 6 5 6 8 9 8 8 8 7 7 7 8 7 4 5 8 7 6 7 10 8 6 7 2 4 4 5 4 2 4 8 7 4 2 1 7 8 7 10 11 9 7 9 11 12 9 7 7 6 5 5 6 5 5 3 2 3
11 11 10 9 8 7 7 6 5 4 3 2 0 2 7 12 13 13 13 12 11 12 10 5 3 2 4 2 2 3 6 5 5 7 7 6 7 8 8 7 7 8 10 8 4 6 10 10 9 6 7 4 3 6 5 2 3 5 7 3 4 9 7 2 2 1 7 10 10 12 12 9 9 10 13 13 9 6 5 4 4 5 5 5 4 3 3 3
11 11 11 10 9 8 7 6 5 3 2 0 2 5 11 15 14 14 15 13 11 12 10 6 3 5 9 4 2 4 7 9 6 4 3 4 5 7 8 7 7 9 10 8 6 8 13 14 10 6 6 3 2 4 5 3 4 5 10 13 12 10 6 4 3 3 7 10 13 14 13 13 13 12 13 10 6 6 7 7 6 6 6 5 3 3 4 5
11 11 11 10 10 9 8 7 5 3 1 1 3 6 11 15 14 14 15 14 14 12 9 6 3 4 9 8 5 4 2 6 7 7 4 0 1 2 5 5 6 8 8 9 10 10 10 12 9 7 7 3 3 6 8 5 5 9 11 13 11 7 4 3 0 5 8 10 14 15 16 17 16 14 13 9 7 8 9 10 9 7 7 5 5 5 6 6
12 11 11 10 10 9 8 7 6 4 1 2 4 6 10 14 15 14 14 15 16 14 11 11 11 9 9 7 8 9 5 1 3 7 8 6 4 3 3 2 4 6 6 9 13 13 10 9 7 7 9 5 4 7 10 5 8 9 10 9 5 3 5 4 3 6 9 12 14 14 14 14 14 15 12 9 9 10 10 10 9 8 7 6 6 7 8 7
13 12 11 10 9 8 8 7 5 4 1 2 4 6 9 14 15 14 14 14 15 15 14 15 16 15 12 10 12 13 9 7 5 4 6 8 4 5 5 4 4 5 6 8 12 15 14 10 7 7 7 5 4 4 6 4 8 10 7 8 7 6 6 4 5 8 10 12 13 13 12 11 12 12 10 10 11 10 9 9 9 8 7 5 5 7 7 6
13 13 11 10 9 8 8 7 6 5 4 3 4 7 10 14 16 15 15 15 14 14 15 18 19 19 15 13 13 14 13 12 12 11 9 7 1 6 8 6 6 10 11 9 11 14 15 13 8 4 4 5 4 3 3 5 5 11 7 5 9 10 8 6 7 9 8 8 10 12 12 12 13 12 13 15 12 8 7 7 8 8 6 4 4 5 5 5
12 12 11 10 9 9 8 7 7 6 6 6 6 8 10 13 16 16 17 17 15 12 14 16 19 21 21 18 17 18 18 17 15 14 13 11 8 6 2 5 6 11 14 13 9 11 15 15 13 9 9 8 6 6 4 7 3 9 9 3 4 7 9 7 6 5 4 7 11 13 14 15 16 15 17 17 11 7 8 8 7 6 6 5 3 3 4 4
11 11 11 11 10 10 9 8 8 7 6 7 8 8 10 12 14 17 18 18 16 14 15 17 18 19 23 24 24 25 24 22 19 17 16 14 13 11 10 9 7 6 9 12 11 10 14 15 16 16 14 11 9 7 5 3 3 7 10 8 6 6 9 6 4 4 5 9 13 14 15 16 16 15 18 18 13 12 12 9 5 4 6 5 3 3 4 2
11 11 11 11 11 10 10 9 9 8 7 8 8 8 10 12 14 16 17 17 17 15 14 16 18 18 21 26 28 30 30 28 23 20 19 17 17 17 16 14 14 13 11 11 14 14 15 16 19 21 18 15 16 17 14 14 13 8 9 13 12 8 7 4 3 7 10 12 14 14 14 15 16 17 19 19 17 17 14 7 3 3 4 3 2 3 5 3
12 11 11 11 11 11 10 9 10 10 8 8 8 8 9 11 15 17 17 17 17 15 14 14 16 19 21 25 29 31 33 31 27 25 24 23 23 22 19 16 16 16 15 15 14 15 16 17 18 22 23 22 23 23 19 16 14 9 7 12 14 8 6 7 9 13 17 19 17 15 14 14 16 19 19 19 19 18 13 7 5 4 4 3 1 1 3 2
13 13 12 12 11 11 11 10 10 10 9 9 10 11 10 11 15 16 17 17 16 16 17 16 17 20 21 23 27 31 34 33 32 31 28 27 28 26 22 21 21 21 22 20 18 18 18 19 17 19 23 26 25 23 18 14 15 12 9 7 10 9 10 14 14 14 18 21 18 13 13 14 15 17 18 20 21 19 12 9 9 6 4 5 1 3 1 1
13 13 14 13 13 12 12 11 11 11 10 11 12 13 12 13 15 15 16 17 17 18 19 18 18 20 21 22 23 28 33 33 33 35 35 31 30 29 27 26 26 27 28 25 24 25 24 23 23 22 24 29 29 23 19 16 17 16 12 8 7 9 13 16 14 14 17 20 17 10 10 13 12 14 18 20 20 18 14 12 10 6 4 4 1 5 3 1
14 14 14 14 13 13 12 13 13 12 12 12 12 13 14 14 15 15 16 17 18 18 18 18 19 20 20 22 24 26 30 33 32 34 38 37 34 32 32 30 29 30 30 30 29 28 27 27 28 28 27 30 32 28 24 21 19 18 16 14 15 15 16 18 19 17 18 22 20 14 13 15 13 13 17 18 18 17 16 12 7 4 3 3 2 6 5 3
16 16 16 16 16 14 14 14 14 14 13 13 13 13 15 15 15 15 16 17 18 18 20 20 20 21 21 21 23 25 28 32 33 32 36 41 40 38 36 35 33 29 28 30 30 27 27 29 29 29 29 29 30 30 29 25 22 22 21 19 22 19 16 19 18 15 17 23 24 20 19 18 13 12 15 18 19 15 12 10 6 3 2 2 1 4 5 5
16 17 18 19 18 18 17 16 15 15 15 14 14 14 16 16 15 15 16 17 19 21 22 24 23 23 23 23 23 25 25 27 30 31 33 38 42 43 41 40 38 32 28 31 31 28 28 29 31 32 32 31 29 31 34 31 27 26 25 24 25 21 17 18 16 11 14 19 20 20 20 15 11 13 15 17 19 14 10 10 9 7 7 4 1 1 2 4
16 17 18 19 20 20 19 19 18 17 17 17 15 16 17 17 16 16 17 19 22 23 24 24 25 25 26 26 26 27 27 26 27 29 31 34 39 44 46 45 42 37 33 33 35 34 32 31 34 36 36 35 31 31 36 37 32 30 29 28 28 24 20 21 20 17 16 16 16 18 20 16 14 15 15 16 20 18 14 12 13 12 12 8 3 1 1 1
18 19 19 19 20 20 20 21 20 19 19 19 18 18 18 18 18 19 20 21 22 24 26 25 25 27 29 30 30 31 31 30 29 28 28 30 35 41 47 49 48 43 37 36 38 40 39 37 37 38 38 37 32 31 36 39 36 33 33 32 32 29 25 25 27 27 23 18 16 16 16 15 14 14 13 14 17 17 15 15 16 16 15 11 6 3 2 2
20 20 21 20 20 21 21 21 21 20 20 21 21 21 21 20 19 19 21 22 23 24 26 27 27 27 29 31 33 34 34 33 31 29 27 28 30 35 43 49 51 48 43 39 38 39 41 42 41 38 38 37 33 31 35 39 39 36 35 34 32 30 29 30 32 30 23 17 17 19 18 14 12 13 13 13 13 14 15 17 17 16 16 12 8 5 6 5
19 20 21 20 20 21 22 22 22 22 21 22 22 23 22 21 21 21 21 22 24 25 27 28 28 28 29 31 33 34 34 33 30 29 27 27 27 29 35 43 50 52 50 47 43 39 38 41 42 40 39 37 35 34 36 39 41 40 38 35 31 30 32 34 34 30 22 18 20 22 19 14 14 16 16 14 15 14 14 16 16 14 14 12 8 6 7 8
Wind_Direction
191 194 201 211 214 207 210 224 236 252 300 333 340 342 338 337 336 336 339 342 342 342 341 342 344 347 348 348 342 338 337 337 338 337 336 335 332 329 330 332 332 330 331 331 333 336 328 321 314 312 325 312 290 282 282 302 300 279 258 223 239 266 293 296 296 304 304 297 292 287 285 283 271 254 247 242 233 216 186 267 304 313 322 323 329 344 353 51
199 204 213 225 222 216 221 234 243 256 281 311 325 330 329 325 325 325 328 331 333 334 334 336 338 340 342 339 335 331 331 333 333 333 333 331 330 328 327 330 329 328 327 328 331 328 318 309 306 317 323 301 280 276 278 250 227 262 292 292 313 321 310 305 303 309 309 296 286 281 276 274 270 264 255 246 243 240 227 263 295 307 318 327 327 339 358 78
208 215 225 233 229 223 229 240 248 257 274 298 313 318 320 320 319 318 319 322 324 326 328 331 332 336 337 333 330 327 327 330 330 330 331 330 329 326 326 328 327 326 323 326 326 315 311 307 311 324 308 286 278 278 266 234 240 262 5 12 354 338 324 310 305 314 315 302 288 280 273 267 266 267 260 243 241 254 260 273 289 299 317 326 318 326 345 100
218 226 234 237 232 227 235 245 251 258 272 290 304 309 311 313 314 313 314 315 317 320 323 326 329 333 333 330 327 323 323 327 327 328 329 328 327 325 326 327 327 324 320 322 315 308 311 307 313 314 291 281 284 289 270 239 254 358 28 16 1 349 343 325 309 312 315 304 294 287 278 268 265 267 262 242 236 251 242 235 270 288 305 307 309 309 308 241
228 235 240 240 234 232 239 247 253 260 272 286 295 299 301 307 309 309 310 311 313 314 317 321 325 329 330 328 327 322 320 325 327 326 326 326 325 326 325 326 326 321 316 315 304 306 307 303 305 303 296 292 295 298 272 240 242 45 30 15 10 7 358 345 327 319 318 310 304 297 285 272 265 262 260 247 239 248 233 217 254 276 291 288 290 282 268 227
240 244 246 242 237 237 243 249 254 261 271 283 290 292 294 299 303 304 305 305 306 309 312 317 321 326 328 326 326 320 315 321 325 324 324 324 324 325 324 325 324 319 313 305 300 303 306 308 308 311 311 301 303 303 255 230 140 62 34 18 19 14 1 355 343 332 325 316 309 299 287 272 260 256 256 250 244 244 228 209 228 256 283 279 276 269 249 191
249 251 250 245 241 241 247 251 255 261 270 279 286 288 289 292 297 300 300 301 302 305 308 313 318 321 324 321 322 317 311 317 323 321 321 320 321 322 321 323 321 315 307 297 298 305 311 313 315 324 318 306 315 318 232 218 102 64 38 28 31 25 15 7 348 333 326 317 308 294 283 265 254 251 250 252 247 240 231 212 206 227 276 274 268 261 240 189
253 252 249 247 245 246 249 253 255 260 268 276 281 284 285 288 292 295 297 298 299 302 305 309 313 316 319 316 317 316 311 316 321 318 316 316 317 317 317 319 316 309 300 294 295 306 314 314 322 327 311 309 331 338 228 159 75 62 50 46 46 41 34 20 357 342 335 327 306 280 274 259 253 251 248 249 244 241 241 227 213 217 249 264 261 252 237 210
253 250 247 246 246 249 252 255 258 262 267 272 277 279 281 284 287 290 293 294 295 298 301 305 309 311 313 311 312 316 312 316 319 317 315 313 313 312 312 313 310 302 295 292 294 307 314 314 324 318 307 319 347 347 21 79 70 66 65 63 63 56 46 30 12 356 350 349 311 281 279 259 254 253 250 239 234 241 243 237 229 223 220 239 255 252 244 230
253 251 249 248 248 250 253 256 260 263 267 270 273 275 277 279 282 285 287 289 291 294 296 300 304 306 308 307 311 317 314 317 319 314 311 308 309 308 307 307 303 295 289 289 290 299 307 315 324 317 315 335 11 35 68 91 80 78 81 69 74 66 47 32 24 10 16 28 4 330 320 271 258 256 252 237 233 241 239 237 240 233 218 219 240 250 250 249
255 254 252 251 251 253 255 258 261 263 266 268 271 273 274 277 279 281 283 285 287 289 292 295 298 301 304 305 312 317 315 320 319 310 306 306 307 304 301 301 296 288 284 283 284 293 310 326 328 321 322 348 56 115 123 116 100 100 90 76 88 72 46 33 27 21 41 48 40 24 4 299 267 262 258 249 241 241 239 238 241 239 229 221 226 235 235 237
257 257 256 254 254 255 256 258 261 263 266 268 269 271 273 275 277 279 281 283 284 286 289 292 295 299 302 305 311 314 314 322 318 309 307 308 306 300 294 293 290 281 277 280 285 298 322 332 328 326 333 5 102 155 152 132 120 118 94 86 95 69 43 40 33 31 45 46 42 30 15 348 287 275 266 258 247 244 244 242 239 236 233 230 227 227 222 216
258 258 258 257 257 257 258 259 261 263 265 266 268 269 271 273 275 277 279 280 282 284 287 290 292 298 301 303 310 313 315 318 316 312 309 308 306 295 285 284 282 272 270 276 281 294 325 327 321 331 346 36 145 162 147 133 134 138 107 88 92 64 38 42 37 37 42 35 31 22 16 10 335 308 280 266 254 251 250 248 241 233 231 232 230 230 221 213
259 259 258 259 259 259 259 260 261 263 264 266 267 268 270 272 274 276 277 279 281 283 287 289 292 298 300 302 308 313 314 311 313 314 308 307 306 292 281 277 273 262 262 268 271 289 318 316 317 330 349 134 164 151 125 115 121 120 107 94 91 66 40 39 33 33 36 28 19 10 9 13 356 332 305 284 267 259 254 251 243 233 235 233 231 234 223 211
261 260 260 260 260 260 260 261 262 263 264 266 267 268 270 271 273 275 277 279 281 284 286 288 293 297 297 301 307 313 314 308 310 313 307 305 299 285 277 269 261 256 258 263 267 284 299 302 316 324 334 140 156 134 123 120 116 103 105 110 95 65 46 36 27 23 29 22 9 1 3 1 350 338 321 302 281 265 256 254 245 239 239 229 227 244 239 217
263 262 262 262 262 262 262 262 263 263 264 265 266 268 270 272 273 275 276 278 281 283 284 288 293 294 295 299 305 313 313 308 310 312 307 303 288 274 271 259 248 251 256 256 262 274 281 295 315 318 334 127 155 143 145 154 133 115 119 124 95 58 49 36 23 17 22 17 6 360 1 353 342 338 326 305 287 269 255 254 247 241 235 222 232 254 251 233
266 265 264 264 263 263 264 264 264 264 264 265 266 267 269 271 273 274 275 278 280 281 283 288 291 291 294 297 303 313 311 307 310 310 305 298 277 264 262 255 246 247 253 255 259 262 271 297 322 319 344 143 168 162 166 179 157 134 109 97 67 49 46 36 23 16 18 16 12 7 2 352 338 333 326 305 287 273 253 247 243 235 230 229 242 251 245 239
269 268 267 267 266 265 265 266 266 266 265 265 265 266 268 270 271 273 274 277 278 280 283 287 289 291 292 294 301 312 309 307 310 308 305 294 276 262 251 248 246 245 254 258 258 260 270 295 309 315 331 167 176 171 173 176 155 126 89 71 55 45 40 33 23 19 20 20 23 17 3 353 340 334 339 325 290 270 246 235 234 229 229 231 237 241 235 232
270 269 269 269 269 268 267 267 268 268 267 266 265 266 266 267 269 270 272 275 277 280 283 285 289 290 290 294 302 311 307 305 308 310 307 297 280 265 243 234 234 241 251 256 256 249 245 260 270 279 238 193 176 175 186 187 159 107 88 72 55 41 31 25 17 19 22 21 26 21 4 350 353 353 357 355 318 267 240 230 231 229 228 226 227 231 227 221
270 269 268 268 269 269 268 268 269 269 268 267 266 267 267 267 268 269 271 273 276 279 281 284 288 288 290 296 302 307 303 300 303 300 293 287 273 259 244 234 228 239 251 253 241 236 240 251 261 245 196 186 185 188 194 185 144 96 91 77 54 34 20 16 7 10 20 17 17 16 5 356 5 6 2 4 356 301 239 230 232 230 227 224 225 227 220 216
270 269 268 267 267 267 268 268 269 269 270 269 267 267 268 269 270 272 272 274 278 281 282 284 287 288 290 294 300 306 298 292 289 275 268 263 263 264 250 249 246 245 254 225 216 240 260 268 269 250 186 136 212 227 222 193 144 105 99 74 41 25 17 12 1 357 5 6 3 5 6 7 5 360 360 5 0 347 273 232 233 231 227 226 229 231 224 218
271 270 269 268 267 267 267 267 267 267 269 270 269 268 267 269 272 276 275 273 277 281 283 287 290 290 289 292 301 304 291 281 267 251 256 255 265 269 255 259 266 259 255 215 228 246 266 278 283 270 180 138 214 248 245 203 154 114 94 54 16 14 14 3 355 346 340 340 339 348 6 10 0 351 354 7 360 352 342 235 224 227 229 231 234 235 232 225
272 271 270 269 268 267 267 266 265 265 265 268 270 267 264 267 273 278 278 273 272 276 281 285 287 289 289 294 300 294 280 272 253 239 251 255 259 262 256 262 272 267 251 215 235 248 253 260 275 278 239 183 188 230 272 173 131 105 70 22 353 5 357 344 343 337 331 327 322 334 7 6 354 347 353 12 9 358 357 280 219 221 226 229 231 230 229 227
275 273 273 272 270 269 268 267 266 264 263 265 267 266 264 266 272 276 279 277 271 273 277 282 285 286 289 294 295 285 272 261 243 240 252 253 252 259 261 263 267 268 255 224 235 248 250 246 245 246 243 223 157 129 85 85 101 102 90 35 354 353 322 321 338 332 324 320 316 334 13 4 352 348 360 16 19 14 9 352 219 216 222 226 230 228 225 226
278 276 275 275 273 271 270 268 267 265 262 262 263 264 264 266 270 275 279 279 277 277 280 283 284 284 289 291 286 278 268 246 226 239 254 254 255 259 261 259 252 257 256 237 243 251 250 242 227 215 210 167 82 107 116 112 114 119 120 75 337 326 303 315 330 323 314 312 319 356 14 7 356 354 4 8 15 24 18 9 257 214 222 227 233 232 227 227
280 279 279 277 275 273 272 270 268 266 263 261 261 263 265 267 270 273 276 279 282 283 282 281 281 285 287 282 278 275 264 244 221 231 247 251 254 251 248 250 243 247 248 237 241 237 230 232 221 168 126 87 90 118 128 130 135 140 141 91 337 321 7 337 311 309 307 306 331 9 13 9 4 2 5 358 3 28 30 19 7 235 224 225 225 225 223 223
285 284 283 282 278 275 274 273 271 268 266 264 264 265 266 269 271 273 276 279 283 284 281 278 276 276 265 261 269 268 254 243 227 234 246 247 249 239 228 237 242 250 246 240 248 240 240 241 163 68 54 71 102 130 132 135 141 139 139 101 347 277 325 335 312 314 312 307 338 4 4 356 353 359 7 358 357 19 33 26 15 341 231 225 220 213 215 217
296 295 295 291 285 283 280 277 275 273 271 270 270 270 272 273 273 275 276 279 281 276 273 274 267 252 241 244 255 253 242 235 227 239 250 243 238 231 221 228 237 248 254 260 273 284 303 308 77 69 65 66 96 139 141 138 139 138 172 162 149 272 313 315 296 308 326 333 348 354 350 337 328 335 2 9 359 359 13 19 16 10 325 232 223 215 215 218
300 302 305 301 296 297 294 288 286 282 277 275 275 275 276 277 277 276 275 272 263 252 242 246 252 243 239 239 242 245 241 233 223 236 246 235 229 231 225 227 230 236 252 263 314 1 26 94 90 78 81 76 86 141 150 145 150 169 190 184 183 224 293 286 280 329 3 10 16 357 339 328 312 320 7 16 1 348 357 10 15 16 18 13 310 237 223 221
300 300 303 300 298 301 301 301 300 293 290 287 282 279 278 279 277 273 264 222 200 213 209 211 234 242 241 235 233 240 241 232 211 223 241 235 228 234 228 222 226 224 229 210 136 79 92 109 95 88 88 78 85 148 167 173 182 181 170 161 170 189 215 246 270 10 21 15 20 0 331 318 299 346 22 15 7 4 13 17 14 17 22 22 16 0 311 249
307 303 303 300 296 296 299 303 300 300 303 300 292 281 276 273 256 224 182 184 190 201 209 208 234 298 273 245 237 241 242 237 213 206 237 244 237 239 233 225 226 216 220 221 174 131 131 118 91 86 74 32 18 231 215 215 211 183 142 112 141 188 208 225 248 34 28 15 7 342 331 329 329 34 26 14 10 12 18 15 5 11 15 16 21 20 10 354
333 320 313 305 300 297 297 297 295 301 309 311 311 283 247 198 182 165 166 190 189 188 219 206 162 344 305 264 266 261 247 244 236 211 224 242 246 243 235 230 229 219 227 236 210 173 165 144 102 78 58 28 9 327 254 233 218 163 140 134 185 212 211 163 155 37 20 10 345 319 323 330 354 24 18 13 12 2 359 352 348 2 6 7 15 22 23 17
360 353 342 327 314 305 303 299 294 299 306 317 325 243 182 169 172 169 177 196 193 200 226 210 169 1 308 230 285 290 270 256 251 232 224 235 247 249 243 238 234 227 232 235 221 218 198 165 143 95 62 38 17 359 312 204 171 110 104 292 249 193 169 137 155 68 0 345 313 294 299 317 355 8 358 1 3 354 355 353 354 7 2 0 3 353 350 1
5 3 2 358 345 331 320 310 303 303 304 315 301 170 166 174 185 187 189 196 201 220 235 218 188 135 139 194 307 356 343 320 272 250 243 234 232 239 239 236 234 230 235 233 203 211 203 189 192 151 88 64 23 3 359 215 197 131 122 133 155 142 128 118 149 39 333 319 299 277 277 307 336 345 346 350 352 358 15 22 33 29 13 10 2 325 271 262
1 359 1 2 358 356 348 338 329 317 304 212 177 169 172 185 198 201 200 202 212 233 244 234 215 133 139 150 108 79 26 358 334 304 263 222 216 232 234 235 237 236 245 241 203 198 199 201 207 167 124 105 84 35 12 326 250 191 142 128 128 126 104 89 90 5 310 305 303 288 286 304 315 334 351 358 6 19 25 19 14 15 14 13 357 312 274 268
352 351 352 352 353 355 356 356 357 353 342 188 192 186 188 199 209 210 211 215 221 233 233 211 186 146 162 161 147 147 42 4 349 352 348 200 145 249 245 247 252 247 260 252 221 201 195 208 214 171 157 153 79 37 8 335 232 189 150 129 130 150 160 139 76 306 293 293 295 290 288 293 302 321 340 353 356 359 11 9 3 7 9 2 346 316 287 277
346 342 340 342 345 344 346 350 357 9 25 211 211 202 200 207 218 224 223 221 222 226 218 192 180 191 212 206 191 198 188 141 326 338 339 337 18 12 315 287 277 267 270 254 230 214 209 220 226 200 184 157 82 27 4 322 233 198 161 140 143 219 231 215 228 260 285 288 277 276 280 285 298 309 316 331 332 333 351 352 343 351 360 353 338 319 295 282
346 343 340 337 336 334 336 336 336 345 319 243 218 204 204 212 229 243 241 233 228 227 226 217 206 209 227 236 227 221 198 174 207 250 295 302 326 19 4 344 331 319 295 257 234 228 225 218 224 233 212 149 88 28 7 324 245 218 181 165 184 216 233 236 229 233 258 276 274 278 285 294 308 309 315 335 332 327 336 333 325 334 350 352 330 316 299 287
347 345 343 339 334 330 329 323 318 311 291 270 225 207 209 219 234 251 256 251 245 238 236 237 234 229 226 222 227 234 220 202 206 203 211 246 254 56 24 355 343 335 318 283 242 235 232 211 195 233 229 178 147 130 69 15 253 220 207 182 194 198 196 217 243 236 243 269 282 287 289 311 333 337 339 338 330 324 332 332 330 340 1 5 323 310 299 285
350 346 346 346 338 331 326 319 313 303 288 280 252 227 221 225 235 250 259 261 257 245 238 242 245 239 231 221 218 228 229 222 218 204 200 204 169 123 332 296 307 319 311 292 259 236 233 213 185 188 211 200 166 138 88 26 350 224 219 188 194 211 202 207 229 236 276 290 287 290 293 310 331 336 333 328 319 322 332 328 329 356 21 15 338 317 301 280
352 350 351 348 340 334 329 320 313 309 298 286 276 262 252 244 241 247 258 268 268 256 247 252 253 241 229 223 219 222 225 225 223 213 210 205 183 188 225 219 209 251 272 278 274 248 233 218 192 191 201 192 177 187 217 222 188 222 228 198 156 187 204 208 229 249 299 294 283 290 297 302 309 313 316 319 319 322 323 319 319 6 23 17 16 352 325 296
351 350 350 347 343 337 330 326 320 314 310 300 294 290 282 271 265 265 271 277 277 273 264 260 259 246 229 222 222 224 224 223 222 217 212 208 199 202 212 200 192 205 217 247 272 265 244 226 204 196 195 189 194 208 214 206 197 206 222 204 183 178 191 196 272 272 281 284 280 287 295 295 296 300 309 317 320 316 311 312 330 2 6 4 29 357 329 308
344 344 346 345 342 339 335 332 326 318 315 308 295 289 282 273 274 279 281 282 285 288 283 267 255 248 236 225 223 228 228 222 219 218 212 209 209 207 206 199 195 204 214 223 243 258 255 240 216 202 198 194 200 208 209 211 214 197 171 196 207 214 223 240 261 264 267 270 271 280 291 292 291 297 307 317 320 315 306 301 317 341 358 350 356 341 312 283
340 338 341 342 340 339 337 332 327 321 315 304 292 288 281 271 272 276 278 282 285 280 275 271 261 256 251 238 227 228 233 229 221 220 218 213 215 216 213 209 204 209 219 221 221 231 243 247 238 223 213 205 204 207 204 214 229 205 161 181 214 224 240 251 263 267 263 264 266 276 286 285 287 300 312 318 318 317 311 303 308 313 333 336 294 174 200 256
339 336 335 338 338 336 330 324 322 319 309 299 294 291 286 277 275 276 276 280 284 280 278 280 276 271 269 261 245 233 237 240 232 227 225 220 217 218 217 216 213 213 218 222 221 219 224 236 244 241 229 216 212 210 198 205 224 207 177 183 215 238 249 246 253 262 255 254 260 272 273 272 287 312 322 322 318 316 314 312 314 313 328 344 181 167 160 200
337 335 332 332 333 330 323 317 316 313 306 299 295 291 288 282 281 284 287 290 292 290 287 285 279 275 272 268 260 247 242 245 242 232 228 224 218 213 212 215 218 218 218 221 223 222 220 226 236 239 233 221 215 213 203 203 214 201 184 196 214 231 246 238 240 257 256 249 252 258 263 267 287 314 322 323 321 318 313 309 312 329 9 35 144 159 150 152
335 335 332 329 327 324 320 316 312 312 308 304 303 299 294 292 294 298 299 299 294 287 285 285 282 279 276 270 266 259 253 253 254 245 233 226 221 215 213 215 218 218 217 218 221 223 221 223 229 232 233 226 217 215 211 208 207 196 188 204 215 218 229 230 233 251 256 247 247 260 274 276 284 302 310 314 318 319 314 308 312 331 359 29 151 161 151 156
334 333 330 328 324 321 319 316 313 314 312 309 309 306 300 301 305 302 296 292 290 288 288 290 290 287 284 279 274 269 264 259 259 257 247 236 228 221 217 217 218 216 216 217 217 217 216 221 226 226 227 227 219 214 215 216 212 201 194 204 212 210 213 217 219 235 246 241 243 260 274 275 277 290 295 300 305 304 300 313 325 320 312 309 260 197 159 165
330 330 328 325 323 320 318 315 314 316 316 312 310 305 301 303 303 296 290 288 290 291 290 289 289 288 285 281 277 272 268 262 256 253 250 245 236 226 221 219 217 216 218 219 219 219 217 219 226 226 224 224 220 213 216 221 220 208 201 204 207 205 208 213 213 216 221 224 232 251 266 268 265 272 280 290 297 294 288 304 320 319 315 312 304 342 52 159
323 325 325 324 321 318 317 315 314 315 313 309 306 302 299 300 298 294 292 290 289 289 290 288 285 283 281 280 277 275 273 271 265 258 251 248 241 232 226 222 218 216 219 219 220 224 224 223 228 231 227 224 224 217 217 223 225 213 204 205 206 206 210 216 215 212 210 213 225 243 262 270 262 261 274 289 296 295 295 301 309 311 310 306 302 314 313 282
318 320 321 321 319 316 315 314 313 313 311 306 302 299 298 298 296 293 292 291 290 289 289 288 284 280 279 279 279 279 278 277 276 272 263 253 245 236 230 226 223 221 221 221 221 225 227 226 229 234 231 228 232 231 222 223 226 220 210 206 207 210 213 216 220 220 218 222 234 241 251 264 266 265 275 288 295 301 304 303 303 305 302 298 297 303 305 307
311 315 317 317 317 315 314 313 313 312 308 303 300 299 298 297 295 293 292 293 293 292 289 286 284 282 279 277 278 280 282 283 283 280 274 265 253 241 233 229 228 226 225 225 223 224 227 227 228 234 235 234 241 243 231 224 225 225 219 211 210 216 218 217 222 226 225 227 235 240 246 260 271 268 270 280 288 296 300 297 295 294 290 291 298 308 315 323
Height
5929 5930 5930 5930 5931 5931 5931 5931 5931 5931 5931 5931 5931 5931 5931 5931 5931 5930 5930 5930 5930 5930 5929 5929 5928 5928 5927 5927 5926 5925 5924 5923 5922 5921 5920 5918 5917 5916 5915 5914 5912 5911 5910 5910 5909 5908 5907 5906 5905 5904 5904 5904 5903 5903 5904 5904 5904 5903 5903 5903 5903 5904 5904 5904 5904 5904 5905 5905 5904 5903 5903 5903 5903 5902 5902 5903 5904 5906 5907 5906 5905 5904 5906 5906 5905 5905 5904 5904
5929 5929 5930 5930 5930 5930 5930 5931 5931 5931 5931 5931 5931 5931 5930 5930 5930 5930 5930 5930 5929 5929 5929 5928 5928 5928 5927 5926 5926 5924 5924 5923 5922 5921 5919 5918 5917 5915 5914 5913 5912 5911 5910 5909 5909 5907 5906 5905 5904 5904 5903 5904 5903 5903 5904 5904 5904 5903 5903 5904 5904 5904 5903 5903 5903 5903 5904 5904 5903 5903 5903 5903 5903 5902 5902 5902 5903 5905 5906 5906 5905 5905 5906 5906 5905 5905 5904 5904
5928 5929 5929 5929 5929 5930 5930 5930 5930 5930 5930 5930 5930 5930 5930 5930 5929 5929 5929 5929 5929 5929 5928 5928 5927 5927 5926 5926 5925 5924 5923 5922 5921 5920 5919 5917 5916 5915 5914 5913 5911 5910 5910 5909 5908 5907 5905 5905 5904 5903 5904 5904 5904 5903 5904 5904 5903 5903 5903 5904 5904 5904 5904 5902 5902 5903 5903 5902 5902 5902 5902 5901 5902 5902 5902 5902 5902 5903 5905 5905 5904 5904 5905 5906 5905 5905 5905 5905
5927 5928 5928 5928 5929 5929 5929 5929 5929 5930 5930 5929 5929 5929 5929 5929 5929 5929 5928 5928 5928 5928 5927 5927 5927 5926 5926 5925 5924 5923 5922 5922 5920 5919 5918 5917 5916 5914 5913 5912 5911 5910 5909 5909 5908 5906 5905 5905 5904 5904 5904 5904 5903 5903 5903 5903 5903 5903 5903 5904 5905 5904 5903 5902 5902 5902 5902 5901 5901 5901 5901 5900 5900 5901 5901 5902 5902 5903 5904 5905 5904 5903 5905 5905 5905 5905 5905 5905
5927 5927 5927 5927 5928 5928 5928 5928 5929 5929 5929 5929 5929 5928 5928 5928 5928 5928 5927 5927 5927 5927 5927 5926 5926 5925 5925 5924 5923 5922 5921 5921 5919 5918 5917 5916 5915 5914 5913 5912 5910 5909 5909 5908 5907 5906 5905 5904 5904 5903 5903 5903 5903 5903 5903 5902 5903 5903 5904 5904 5904 5904 5903 5902 5901 5901 5901 5900 5900 5900 5900 5900 5899 5900 5901 5902 5902 5902 5904 5905 5904 5903 5904 5905 5905 5905 5905 5905
5926 5926 5926 5926 5927 5927 5927 5927 5928 5928 5928 5928 5928 5927 5927 5927 5927 5927 5926 5926 5926 5926 5926 5925 5925 5924 5924 5923 5923 5921 5920 5920 5919 5917 5916 5915 5914 5913 5912 5911 5910 5909 5908 5908 5907 5906 5905 5904 5903 5903 5903 5902 5902 5903 5902 5902 5903 5903 5904 5904 5904 5903 5903 5902 5901 5900 5900 5899 5899 5899 5899 5899 5899 5899 5900 5901 5901 5902 5903 5904 5904 5903 5904 5904 5904 5905 5905 5905
5925 5925 5925 5925 5926 5926 5926 5926 5926 5927 5927 5927 5927 5926 5926 5926 5926 5926 5925 5925 5925 5925 5924 5924 5924 5923 5923 5922 5922 5920 5919 5918 5918 5916 5915 5914 5913 5912 5911 5910 5909 5908 5908 5907 5906 5905 5905 5904 5903 5903 5902 5902 5902 5902 5901 5901 5902 5903 5904 5904 5904 5903 5903 5903 5901 5900 5899 5899 5898 5898 5898 5898 5897 5898 5900 5900 5900 5901 5902 5904 5905 5904 5903 5904 5904 5904 5905 5905
5924 5924 5924 5924 5924 5925 5925 5925 5925 5925 5925 5925 5925 5925 5925 5925 5925 5924 5924 5924 5924 5923 5923 5923 5923 5922 5922 5921 5920 5920 5918 5917 5917 5915 5914 5913 5912 5911 5910 5909 5908 5907 5907 5907 5906 5905 5905 5904 5903 5902 5901 5901 5901 5900 5900 5900 5902 5903 5903 5904 5904 5903 5903 5903 5902 5900 5899 5898 5898 5897 5897 5897 5897 5897 5899 5899 5899 5900 5901 5903 5905 5905 5904 5904 5904 5904 5905 5905
5922 5922 5923 5923 5923 5923 5924 5924 5924 5924 5924 5924 5924 5924 5924 5923 5923 5923 5923 5923 5922 5922 5922 5921 5921 5921 5920 5920 5919 5919 5917 5916 5915 5914 5913 5912 5911 5910 5908 5908 5907 5906 5906 5906 5906 5905 5904 5904 5903 5902 5901 5902 5901 5900 5900 5901 5902 5902 5903 5904 5904 5903 5903 5904 5902 5900 5899 5898 5897 5897 5896 5896 5896 5896 5898 5899 5898 5898 5899 5901 5903 5904 5905 5905 5904 5904 5904 5905
5921 5921 5921 5921 5922 5922 5922 5922 5922 5922 5922 5922 5922 5922 5922 5922 5922 5922 5921 5921 5921 5921 5920 5920 5920 5919 5919 5918 5918 5917 5916 5915 5914 5912 5911 5910 5909 5908 5907 5906 5906 5905 5905 5905 5905 5904 5904 5903 5902 5901 5902 5901 5900 5900 5900 5901 5901 5902 5903 5903 5903 5903 5904 5904 5902 5901 5899 5898 5897 5896 5896 5895 5895 5895 5897 5898 5898 5897 5898 5899 5900 5902 5904 5905 5905 5904 5904 5903
5919 5919 5920 5920 5920 5920 5920 5920 5920 5920 5920 5920 5920 5920 5920 5920 5920 5920 5920 5920 5919 5919 5919 5919 5918 5918 5917 5916 5916 5915 5914 5914 5912 5910 5910 5909 5908 5907 5906 5905 5905 5904 5904 5904 5904 5904 5903 5903 5902 5901 5902 5901 5900 5900 5900 5900 5901 5902 5902 5903 5903 5904 5904 5903 5902 5901 5899 5897 5896 5896 5895 5895 5895 5895 5895 5897 5897 5897 5897 5897 5898 5899 5901 5903 5905 5905 5904 5904
5917 5918 5918 5918 5918 5918 5919 5919 5919 5919 5919 5918 5918 5918 5918 5918 5918 5918 5918 5918 5918 5918 5917 5917 5917 5916 5915 5914 5914 5914 5913 5912 5911 5908 5907 5907 5906 5905 5904 5904 5903 5903 5903 5903 5903 5903 5903 5902 5902 5902 5902 5900 5900 5900 5900 5900 5901 5901 5902 5903 5904 5904 5903 5902 5902 5901 5898 5897 5896 5896 5895 5894 5894 5894 5895 5896 5896 5896 5896 5896 5897 5898 5900 5902 5904 5905 5905 5905
5916 5916 5916 5916 5916 5916 5916 5917 5917 5916 5916 5916 5916 5916 5916 5916 5916 5916 5916 5916 5916 5916 5916 5916 5915 5915 5914 5912 5912 5912 5911 5911 5909 5907 5905 5905 5904 5903 5903 5902 5902 5902 5902 5902 5902 5902 5902 5901 5901 5902 5901 5900 5900 5900 5900 5900 5901 5901 5901 5903 5903 5903 5902 5901 5901 5900 5898 5896 5895 5895 5895 5894 5893 5893 5894 5894 5895 5895 5896 5896 5896 5897 5898 5900 5901 5903 5904 5905
5914 5914 5914 5914 5914 5914 5914 5914 5914 5914 5914 5914 5914 5914 5914 5914 5914 5914 5914 5914 5914 5914 5914 5914 5913 5913 5912 5910 5910 5910 5909 5908 5908 5906 5903 5902 5902 5901 5901 5901 5901 5901 5901 5901 5901 5901 5901 5901 5901 5901 5901 5900 5900 5900 5900 5900 5900 5900 5901 5901 5902 5902 5901 5901 5900 5900 5898 5896 5895 5895 5895 5894 5893 5893 5893 5893 5893 5894 5894 5895 5895 5896 5897 5898 5899 5901 5903 5904
5912 5912 5912 5912 5912 5912 5912 5912 5912 5912 5912 5912 5912 5912 5912 5912 5912 5912 5912 5912 5912 5912 5912 5912 5912 5911 5910 5909 5908 5908 5907 5905 5906 5905 5902 5900 5900 5899 5899 5899 5900 5900 5900 5900 5900 5900 5900 5900 5900 5900 5900 5900 5900 5900 5900 5901 5901 5901 5900 5900 5901 5900 5900 5900 5900 5900 5898 5896 5895 5895 5895 5894 5893 5893 5892 5892 5892 5892 5893 5893 5894 5896 5896 5897 5898 5899 5900 5902
5909 5909 5909 5909 5909 5909 5910 5910 5910 5910 5910 5910 5910 5910 5910 5910 5910 5910 5910 5910 5910 5910 5910 5910 5910 5909 5908 5907 5907 5906 5905 5903 5903 5903 5901 5900 5899 5898 5897 5898 5899 5899 5899 5899 5899 5900 5900 5900 5900 5900 5899 5899 5900 5900 5901 5901 5901 5900 5900 5900 5901 5900 5899 5899 5900 5899 5898 5896 5896 5895 5894 5894 5893 5893 5892 5891 5891 5892 5892 5892 5893 5894 5895 5895 5896 5898 5899 5900
5907 5907 5907 5907 5907 5907 5907 5907 5907 5907 5907 5907 5908 5908 5908 5908 5908 5908 5908 5908 5908 5908 5908 5908 5908 5907 5906 5906 5905 5905 5903 5901 5901 5900 5900 5899 5898 5897 5897 5897 5898 5898 5898 5899 5899 5899 5899 5899 5899 5899 5899 5899 5899 5900 5901 5901 5900 5899 5899 5900 5901 5900 5899 5899 5900 5899 5897 5897 5897 5896 5895 5894 5893 5892 5892 5890 5890 5891 5891 5891 5891 5892 5893 5894 5895 5896 5897 5898
5904 5904 5904 5904 5904 5904 5905 5905 5905 5905 5905 5905 5905 5905 5906 5906 5906 5906 5906 5906 5905 5905 5906 5906 5906 5904 5904 5904 5904 5903 5901 5899 5899 5898 5897 5897 5897 5896 5896 5896 5897 5897 5898 5898 5898 5898 5898 5898 5898 5898 5898 5898 5898 5899 5900 5900 5899 5898 5899 5900 5900 5900 5899 5899 5900 5899 5898 5897 5898 5897 5895 5894 5893 5892 5891 5890 5889 5889 5890 5890 5890 5890 5892 5893 5894 5895 5896 5896
5901 5901 5901 5901 5902 5902 5902 5902 5902 5902 5902 5902 5903 5903 5903 5903 5903 5903 5904 5904 5903 5903 5904 5904 5904 5902 5901 5902 5902 5902 5900 5898 5897 5896 5895 5895 5895 5895 5895 5896 5896 5897 5897 5897 5897 5897 5897 5896 5896 5897 5897 5897 5898 5899 5899 5898 5898 5897 5897 5899 5899 5899 5899 5899 5900 5899 5898 5898 5898 5897 5896 5894 5892 5891 5890 5889 5888 5888 5888 5888 5888 5889 5890 5891 5892 5894 5894 5895
5898 5898 5898 5899 5899 5899 5899 5899 5899 5899 5899 5900 5900 5900 5900 5901 5901 5901 5901 5901 5900 5901 5901 5902 5902 5900 5899 5899 5900 5900 5899 5897 5896 5895 5895 5895 5895 5895 5895 5895 5896 5896 5896 5896 5896 5896 5895 5895 5896 5896 5896 5897 5897 5898 5898 5897 5896 5895 5896 5897 5898 5899 5899 5899 5899 5899 5898 5898 5898 5897 5895 5894 5892 5890 5889 5888 5887 5887 5887 5887 5887 5888 5889 5890 5891 5892 5893 5894
5895 5895 5895 5896 5896 5896 5896 5896 5896 5896 5897 5897 5897 5897 5898 5898 5898 5898 5899 5899 5898 5898 5898 5899 5900 5898 5897 5897 5898 5898 5897 5896 5895 5895 5894 5895 5894 5894 5894 5894 5894 5895 5895 5895 5895 5894 5894 5895 5895 5895 5895 5896 5896 5896 5897 5896 5894 5894 5894 5895 5897 5898 5898 5898 5898 5898 5898 5898 5899 5897 5895 5893 5891 5890 5889 5888 5887 5886 5886 5886 5887 5887 5888 5889 5889 5890 5892 5893
5893 5892 5892 5893 5893 5893 5893 5893 5893 5893 5894 5894 5894 5894 5895 5895 5895 5896 5896 5897 5896 5895 5895 5896 5897 5896 5894 5895 5896 5896 5895 5894 5894 5894 5893 5893 5893 5892 5893 5893 5893 5894 5894 5895 5894 5894 5894 5894 5894 5894 5894 5894 5895 5895 5896 5895 5893 5892 5893 5894 5896 5898 5898 5898 5898 5898 5898 5898 5898 5897 5895 5893 5891 5890 5889 5888 5888 5886 5885 5885 5885 5886 5886 5887 5888 5889 5891 5892
5890 5890 5890 5890 5890 5890 5889 5889 5889 5890 5891 5891 5891 5891 5892 5892 5893 5893 5893 5895 5895 5893 5893 5894 5894 5894 5892 5892 5894 5893 5893 5892 5892 5892 5891 5892 5892 5892 5892 5892 5892 5893 5893 5894 5893 5893 5893 5893 5893 5893 5893 5893 5893 5894 5894 5893 5892 5892 5893 5895 5897 5898 5898 5897 5897 5897 5897 5897 5897 5896 5895 5892 5891 5889 5889 5888 5887 5886 5884 5883 5883 5884 5885 5886 5886 5887 5888 5890
5887 5887 5887 5887 5887 5887 5886 5886 5886 5887 5888 5888 5888 5888 5889 5890 5891 5891 5891 5892 5893 5892 5892 5892 5892 5892 5890 5890 5891 5890 5890 5890 5890 5891 5890 5891 5891 5891 5891 5891 5891 5892 5892 5893 5893 5892 5892 5893 5893 5893 5893 5892 5892 5893 5893 5892 5892 5893 5895 5896 5897 5897 5897 5897 5897 5897 5896 5896 5896 5895 5894 5892 5891 5889 5889 5888 5887 5886 5884 5883 5882 5883 5883 5884 5884 5884 5886 5888
5884 5884 5885 5885 5884 5884 5884 5884 5884 5884 5885 5885 5885 5886 5887 5887 5888 5889 5888 5889 5890 5889 5890 5890 5889 5889 5889 5888 5888 5888 5889 5889 5890 5889 5889 5889 5890 5890 5890 5891 5891 5891 5891 5892 5892 5892 5892 5892 5893 5893 5893 5892 5891 5892 5892 5892 5893 5895 5896 5897 5896 5896 5896 5895 5896 5896 5896 5895 5895 5894 5892 5892 5891 5890 5889 5888 5887 5886 5884 5883 5882 5882 5882 5882 5883 5884 5885 5886
5881 5882 5882 5882 5881 5881 5881 5881 5881 5882 5882 5883 5883 5884 5884 5885 5885 5886 5886 5886 5887 5887 5887 5887 5887 5887 5887 5886 5886 5886 5887 5887 5888 5888 5887 5888 5888 5889 5889 5889 5890 5890 5890 5891 5891 5891 5891 5892 5891 5891 5891 5891 5890 5891 5891 5891 5892 5894 5895 5895 5894 5894 5894 5895 5895 5896 5896 5895 5894 5893 5892 5893 5892 5891 5890 5889 5888 5886 5885 5884 5883 5882 5882 5882 5883 5883 5884 5885
5879 5879 5880 5879 5878 5879 5879 5878 5879 5879 5879 5880 5881 5881 5882 5882 5883 5883 5884 5884 5885 5885 5884 5884 5885 5886 5885 5885 5885 5885 5885 5886 5887 5886 5886 5887 5887 5887 5888 5888 5888 5889 5889 5891 5890 5890 5890 5890 5889 5889 5889 5889 5890 5891 5892 5892 5893 5895 5895 5894 5893 5894 5894 5895 5895 5895 5894 5894 5893 5892 5892 5892 5893 5892 5890 5889 5888 5887 5886 5885 5884 5883 5882 5882 5882 5882 5883 5884
5877 5877 5877 5877 5876 5876 5876 5876 5876 5876 5877 5877 5878 5878 5879 5880 5881 5881 5881 5882 5882 5882 5883 5883 5884 5884 5884 5884 5884 5884 5884 5885 5885 5885 5884 5885 5886 5886 5887 5887 5887 5888 5888 5890 5890 5889 5889 5888 5887 5887 5888 5889 5890 5891 5892 5893 5894 5895 5895 5894 5894 5893 5892 5893 5895 5894 5893 5893 5892 5892 5892 5892 5892 5892 5891 5890 5889 5887 5886 5886 5885 5884 5883 5882 5882 5882 5883 5883
5876 5875 5875 5875 5874 5874 5874 5874 5874 5874 5874 5875 5875 5876 5877 5877 5878 5878 5879 5880 5880 5880 5881 5881 5881 5882 5882 5882 5882 5882 5882 5883 5884 5883 5883 5884 5885 5885 5885 5886 5886 5887 5887 5888 5889 5889 5888 5888 5887 5887 5888 5890 5891 5892 5892 5892 5893 5894 5894 5894 5894 5895 5894 5892 5893 5893 5892 5892 5892 5892 5892 5892 5892 5892 5892 5891 5889 5887 5886 5886 5886 5885 5884 5883 5882 5882 5882 5882
5874 5874 5874 5874 5873 5873 5873 5873 5873 5872 5872 5873 5873 5874 5874 5875 5876 5876 5877 5878 5878 5878 5879 5879 5879 5879 5879 5879 5880 5880 5880 5882 5883 5883 5882 5883 5884 5883 5884 5885 5885 5886 5887 5887 5888 5888 5889 5888 5887 5887 5889 5891 5892 5892 5892 5892 5892 5892 5893 5893 5894 5896 5895 5893 5893 5893 5892 5891 5891 5892 5892 5892 5892 5893 5892 5890 5888 5886 5886 5886 5886 5885 5885 5884 5884 5883 5882 5882
5873 5872 5872 5872 5872 5871 5871 5871 5871 5871 5871 5871 5872 5872 5873 5873 5873 5874 5875 5875 5876 5876 5876 5876 5876 5877 5877 5878 5878 5878 5879 5880 5882 5882 5882 5882 5882 5883 5883 5884 5884 5885 5885 5886 5887 5887 5887 5887 5887 5887 5889 5890 5891 5891 5891 5892 5892 5892 5892 5893 5894 5895 5895 5895 5895 5894 5892 5891 5891 5892 5893 5892 5892 5893 5892 5890 5888 5887 5886 5886 5885 5885 5885 5885 5884 5884 5884 5883
5872 5871 5870 5870 5870 5870 5870 5870 5870 5870 5870 5870 5870 5871 5871 5872 5872 5872 5872 5872 5874 5874 5873 5874 5874 5875 5876 5877 5877 5877 5877 5879 5880 5881 5881 5881 5881 5881 5882 5882 5883 5884 5884 5884 5886 5886 5886 5886 5886 5887 5888 5889 5890 5890 5890 5891 5891 5890 5890 5891 5893 5894 5895 5895 5895 5893 5892 5892 5892 5892 5892 5892 5892 5892 5892 5890 5889 5888 5887 5886 5886 5885 5885 5884 5884 5884 5884 5884
5871 5870 5869 5869 5868 5868 5868 5869 5869 5869 5869 5869 5869 5869 5870 5870 5870 5870 5870 5870 5871 5870 5870 5872 5873 5874 5875 5876 5876 5876 5877 5878 5879 5880 5880 5880 5880 5880 5880 5881 5882 5883 5883 5884 5885 5885 5885 5885 5885 5886 5888 5889 5889 5889 5889 5890 5890 5890 5890 5891 5892 5893 5893 5894 5894 5893 5893 5893 5892 5891 5890 5891 5891 5891 5891 5891 5891 5889 5888 5887 5886 5885 5885 5884 5883 5883 5883 5884
5870 5869 5869 5868 5868 5867 5867 5867 5867 5868 5868 5868 5868 5868 5869 5869 5868 5868 5869 5869 5870 5868 5868 5870 5872 5873 5874 5876 5877 5877 5877 5877 5878 5878 5879 5879 5880 5880 5880 5880 5881 5882 5882 5883 5884 5884 5884 5884 5884 5884 5886 5887 5888 5889 5889 5889 5890 5890 5890 5890 5891 5892 5893 5894 5894 5893 5892 5892 5891 5890 5889 5890 5890 5891 5892 5891 5891 5889 5887 5886 5886 5885 5884 5884 5883 5882 5882 5883
5870 5869 5868 5868 5867 5867 5866 5866 5866 5867 5867 5867 5867 5867 5868 5867 5867 5868 5868 5869 5868 5867 5867 5869 5870 5871 5872 5874 5875 5876 5876 5876 5877 5878 5879 5879 5880 5880 5879 5880 5880 5881 5881 5882 5883 5883 5884 5884 5883 5883 5885 5886 5887 5888 5888 5888 5889 5890 5890 5890 5890 5891 5892 5893 5893 5892 5891 5891 5890 5889 5889 5889 5890 5891 5892 5891 5890 5888 5886 5885 5884 5884 5884 5883 5882 5882 5881 5882
5870 5869 5868 5867 5867 5866 5866 5865 5866 5866 5866 5866 5866 5866 5866 5866 5867 5867 5867 5867 5867 5866 5867 5868 5869 5870 5869 5870 5872 5873 5873 5874 5875 5876 5878 5878 5879 5879 5879 5880 5880 5880 5881 5882 5882 5882 5883 5883 5882 5883 5884 5885 5885 5886 5887 5887 5888 5890 5890 5889 5889 5889 5890 5891 5891 5891 5891 5891 5890 5889 5889 5889 5890 5891 5891 5891 5888 5886 5885 5884 5883 5883 5883 5883 5882 5881 5881 5881
5869 5868 5867 5867 5866 5866 5865 5865 5865 5865 5865 5865 5865 5865 5865 5865 5865 5865 5865 5866 5866 5866 5867 5867 5868 5869 5869 5869 5870 5869 5870 5871 5873 5875 5876 5877 5878 5878 5879 5880 5880 5880 5880 5880 5881 5881 5880 5880 5881 5882 5882 5883 5883 5884 5886 5886 5887 5888 5889 5888 5888 5888 5888 5888 5889 5890 5890 5890 5889 5888 5888 5889 5889 5890 5891 5889 5887 5885 5884 5883 5883 5883 5883 5882 5881 5880 5879 5879
5868 5867 5867 5866 5865 5865 5865 5864 5864 5864 5864 5864 5864 5864 5864 5864 5863 5863 5864 5865 5865 5866 5866 5866 5867 5867 5868 5869 5869 5868 5868 5869 5869 5871 5873 5875 5876 5878 5879 5879 5879 5879 5879 5879 5879 5879 5879 5879 5880 5882 5881 5881 5882 5883 5885 5886 5885 5886 5887 5887 5887 5887 5887 5887 5888 5889 5890 5889 5887 5887 5887 5888 5889 5890 5890 5888 5886 5885 5884 5883 5882 5882 5883 5882 5880 5879 5878 5877
5867 5866 5866 5865 5864 5864 5864 5863 5863 5863 5863 5863 5863 5863 5863 5863 5862 5862 5863 5864 5865 5865 5865 5865 5866 5866 5867 5867 5868 5868 5868 5867 5866 5867 5870 5872 5874 5876 5878 5878 5878 5878 5878 5878 5878 5878 5878 5878 5879 5880 5880 5879 5880 5882 5884 5886 5885 5885 5886 5886 5886 5886 5887 5888 5888 5889 5889 5888 5887 5886 5886 5886 5888 5888 5888 5887 5886 5885 5884 5883 5882 5882 5883 5881 5879 5878 5877 5876
5867 5866 5865 5864 5864 5863 5863 5862 5862 5862 5862 5861 5861 5861 5861 5860 5860 5860 5860 5861 5863 5864 5864 5864 5864 5865 5866 5867 5867 5866 5866 5866 5865 5866 5868 5869 5870 5873 5873 5874 5875 5876 5876 5876 5876 5876 5876 5877 5877 5878 5877 5877 5879 5881 5883 5885 5885 5886 5886 5886 5886 5887 5887 5888 5888 5888 5889 5888 5887 5886 5885 5885 5886 5886 5886 5886 5886 5884 5883 5882 5882 5882 5882 5881 5879 5877 5876 5876
5866 5865 5864 5864 5863 5862 5862 5861 5861 5861 5861 5860 5860 5859 5859 5858 5858 5858 5857 5858 5859 5861 5862 5861 5861 5862 5863 5864 5864 5863 5863 5865 5864 5865 5866 5867 5868 5868 5867 5867 5869 5870 5871 5872 5874 5875 5875 5875 5876 5876 5876 5876 5878 5879 5881 5882 5883 5885 5886 5886 5886 5887 5887 5887 5887 5887 5887 5886 5886 5885 5885 5885 5885 5885 5885 5885 5885 5884 5883 5882 5881 5882 5882 5880 5878 5877 5876 5876
5866 5865 5864 5863 5862 5862 5861 5860 5860 5859 5859 5859 5859 5859 5858 5858 5856 5856 5856 5855 5856 5857 5858 5859 5859 5859 5860 5861 5860 5859 5859 5862 5863 5863 5864 5866 5866 5863 5862 5863 5863 5864 5866 5869 5871 5872 5873 5873 5874 5874 5874 5875 5876 5876 5878 5879 5880 5881 5883 5885 5886 5886 5886 5885 5885 5886 5886 5885 5885 5885 5884 5884 5884 5884 5884 5883 5883 5882 5882 5881 5881 5881 5882 5880 5878 5877 5876 5876
5865 5864 5863 5862 5861 5861 5860 5859 5858 5858 5858 5858 5857 5857 5857 5857 5855 5854 5854 5854 5854 5854 5855 5856 5856 5855 5856 5857 5858 5857 5856 5859 5860 5860 5860 5862 5862 5860 5860 5862 5862 5862 5863 5864 5866 5869 5870 5870 5871 5873 5873 5874 5874 5875 5876 5878 5879 5880 5881 5883 5884 5885 5885 5884 5884 5884 5884 5883 5883 5884 5883 5883 5883 5882 5882 5882 5881 5880 5880 5880 5880 5880 5881 5880 5879 5877 5876 5876
5864 5862 5862 5861 5860 5859 5859 5858 5857 5857 5856 5856 5855 5855 5855 5855 5853 5853 5853 5852 5851 5852 5852 5852 5852 5851 5852 5853 5855 5855 5854 5855 5857 5856 5857 5859 5860 5859 5861 5861 5861 5860 5861 5861 5862 5864 5866 5868 5869 5871 5872 5872 5873 5874 5876 5877 5878 5878 5879 5881 5882 5883 5883 5883 5882 5882 5881 5880 5881 5882 5882 5882 5882 5882 5881 5880 5879 5879 5879 5879 5879 5880 5880 5880 5879 5877 5877 5877
5863 5861 5860 5860 5859 5858 5857 5856 5856 5855 5854 5854 5853 5852 5852 5852 5851 5851 5851 5849 5849 5849 5849 5850 5850 5849 5849 5850 5851 5852 5851 5851 5852 5853 5853 5856 5858 5858 5859 5859 5859 5858 5859 5860 5859 5859 5862 5864 5865 5867 5869 5870 5871 5873 5874 5874 5874 5875 5876 5878 5880 5881 5881 5881 5881 5881 5880 5879 5878 5880 5880 5881 5881 5882 5881 5879 5878 5878 5878 5878 5878 5878 5879 5880 5879 5878 5877 5877
5861 5860 5859 5858 5857 5857 5856 5855 5854 5854 5853 5852 5851 5851 5850 5849 5849 5848 5848 5847 5847 5847 5846 5846 5846 5846 5846 5847 5848 5848 5847 5846 5847 5849 5850 5852 5854 5854 5855 5856 5856 5855 5856 5856 5857 5857 5858 5860 5861 5863 5865 5866 5868 5870 5871 5871 5872 5873 5873 5874 5876 5877 5878 5879 5879 5879 5879 5878 5878 5878 5879 5880 5881 5881 5880 5878 5878 5878 5877 5877 5877 5877 5878 5879 5880 5878 5877 5877
5860 5858 5857 5856 5856 5855 5854 5853 5852 5851 5850 5850 5849 5849 5847 5847 5846 5846 5845 5844 5844 5843 5842 5842 5842 5842 5842 5843 5843 5844 5843 5842 5843 5845 5847 5848 5849 5851 5852 5852 5852 5853 5853 5853 5854 5855 5856 5857 5857 5859 5861 5863 5866 5869 5869 5869 5869 5870 5870 5870 5872 5873 5874 5875 5876 5877 5877 5876 5877 5877 5877 5879 5881 5881 5879 5878 5878 5878 5877 5877 5877 5877 5877 5879 5880 5879 5878 5878
5858 5857 5855 5854 5853 5852 5851 5851 5850 5849 5848 5848 5847 5846 5845 5844 5844 5844 5843 5841 5839 5839 5838 5838 5838 5839 5838 5838 5838 5838 5839 5840 5840 5841 5842 5844 5846 5848 5849 5850 5850 5850 5850 5850 5850 5851 5853 5854 5853 5854 5856 5859 5862 5865 5866 5866 5867 5867 5866 5866 5868 5869 5870 5872 5873 5873 5872 5873 5875 5875 5875 5877 5879 5879 5878 5877 5877 5877 5877 5877 5876 5876 5876 5877 5878 5879 5879 5878
5856 5855 5854 5852 5850 5849 5848 5847 5847 5846 5845 5844 5844 5844 5842 5841 5841 5840 5839 5838 5836 5835 5835 5835 5834 5834 5833 5833 5832 5832 5833 5834 5835 5836 5837 5838 5841 5844 5845 5846 5846 5847 5847 5847 5847 5847 5848 5849 5848 5848 5851 5854 5857 5861 5862 5862 5864 5864 5863 5864 5865 5867 5868 5868 5869 5868 5867 5869 5871 5872 5872 5874 5876 5876 5876 5876 5876 5876 5876 5875 5875 5875 5875 5876 5876 5877 5877 5878
5854 5853 5852 5850 5848 5847 5846 5845 5844 5844 5842 5841 5841 5840 5839 5839 5838 5836 5835 5834 5833 5831 5831 5831 5831 5829 5828 5827 5826 5826 5826 5828 5829 5830 5831 5832 5834 5837 5840 5840 5841 5842 5843 5843 5843 5842 5843 5845 5845 5845 5847 5850 5853 5857 5858 5858 5860 5861 5861 5862 5863 5865 5865 5865 5864 5863 5864 5865 5868 5869 5871 5872 5873 5874 5874 5874 5874 5874 5874 5874 5873 5873 5874 5875 5875 5875 5875 5876
5852 5850 5849 5848 5846 5845 5844 5842 5841 5841 5840 5838 5837 5836 5835 5835 5835 5833 5832 5831 5829 5828 5827 5827 5826 5826 5824 5822 5821 5820 5821 5823 5824 5825 5827 5827 5828 5830 5833 5835 5837 5838 5838 5838 5838 5837 5838 5840 5841 5841 5844 5847 5850 5853 5855 5855 5856 5858 5859 5860 5862 5862 5862 5861 5861 5861 5863 5864 5865 5867 5869 5870 5871 5871 5871 5872 5872 5872 5872 5871 5871 5871 5872 5873 5873 5873 5873 5873
5850 5848 5847 5845 5844 5842 5841 5840 5839 5838 5837 5835 5833 5832 5831 5831 5830 5830 5829 5827 5826 5824 5823 5822 5821 5822 5821 5819 5817 5817 5817 5818 5819 5820 5821 5822 5822 5824 5826 5827 5830 5832 5831 5831 5832 5831 5832 5834 5835 5836 5839 5842 5846 5849 5851 5851 5852 5855 5857 5858 5858 5858 5858 5859 5859 5859 5861 5861 5862 5864 5866 5868 5868 5868 5869 5870 5870 5870 5869 5869 5869 5870 5871 5872 5873 5872 5872 5872